Flag for U.S.A. Weather past 2 weeks in Lexington-Fayette, Kentucky, U.S.A.

Now
76 °F

Mostly cloudy.


Feels Like: 76 °F
Forecast: 67 / 82 °F
Wind: 7 mph from Southwest

Location: Blue Grass Airport

Current Time: Jul 7, 2015 at 2:30:28 PM

Latest Report: Jul 7, 2015 at 1:54 PM


Visibility: 10 mi

Pressure: 30.01 "Hg

Humidity: 88%

Dew point: 72 °F

Location of Lexington-FayetteLocation

Historic Weather in Lexington-Fayette — Graph

°F

Lexington-Fayette temperature yesterday

Maximum temperature yesterday: 84 °F (at 4:54 PM)
Minimum temperature yesterday: 63 °F (at 5:01 AM)
Average temperature yesterday: 74 °F

Past Weeks' High & Low Weather Summary

 TemperatureHumidityPressure
High89 °F (Jun 23, 4:54 PM)97% (Jun 30, 3:54 AM)30.16 "Hg (Jun 30, 3:54 AM)
Low57 °F (Jun 28, 2:54 AM)39% (Jun 24, 4:54 PM)29.76 "Hg (Jun 27, 4:54 AM)
Average73 °F79%29.95 "Hg
* Reported Jun 22 12:54 PM — Jul 7 12:54 PM, Lexington-Fayette, Weather by CustomWeather, © 2015

Note: Actual official high and low records may vary slightly from our data, if they occured in-between our weather recording intervals... More about our weather records

Advertising

Lexington-Fayette weather history for previous 24 hours

 ConditionsComfort  
Time TempWeatherWind HumidityBarometerVisibility
12:54 PM
Tue, Jul 7
78 °FBroken clouds.14 mph74%30.01 "Hg10 mi
11:54 AM79 °FPassing clouds.21 mph72%30.00 "Hg10 mi
10:54 AM79 °FBroken clouds.14 mph77%30.02 "Hg9 mi
10:02 AM77 °FMore clouds than sun.14 mph82%30.06 "Hg10 mi
9:54 AM77 °FMostly cloudy.13 mph82%30.02 "Hg10 mi
8:54 AM75 °FOvercast.13 mph88%30.02 "Hg10 mi
7:54 AM74 °FPassing clouds.13 mph88%30.01 "Hg10 mi
6:54 AM72 °FClear.9 mph93%30.01 "Hg9 mi
5:54 AM72 °FClear.10 mph91%30.01 "Hg10 mi
4:54 AM73 °FPassing clouds.9 mph88%30.01 "Hg10 mi
3:54 AM72 °FClear.7 mph91%30.01 "Hg10 mi
2:54 AM71 °FClear.7 mph90%30.01 "Hg10 mi
1:54 AM73 °FClear.8 mph88%30.01 "Hg10 mi
12:54 AM72 °FClear.8 mph87%30.02 "Hg10 mi
11:54 PM
Mon, Jul 6
73 °FClear.6 mph84%30.04 "Hg10 mi
10:54 PM73 °FClear.7 mph84%30.03 "Hg10 mi
9:54 PM75 °FSunny.5 mph79%30.02 "Hg10 mi
8:54 PM77 °FSunny.6 mph77%30.00 "Hg9 mi
7:54 PM80 °FSunny.6 mph69%30.01 "Hg8 mi
6:54 PM82 °FSunny.9 mph60%30.01 "Hg7 mi
5:54 PM83 °FSunny.9 mph57%30.02 "Hg7 mi
4:54 PM84 °FSunny.12 mph55%30.04 "Hg8 mi
3:54 PM82 °FPartly sunny.9 mph63%30.06 "Hg7 mi
2:54 PM83 °FScattered clouds.6 mph61%30.08 "Hg8 mi
Weather by CustomWeather, © 2015

See weather overviewHow to use our weather pages